Home   Weather   Saint-Pierre   Past weeks

Flag for Saint Pierre and Miquelon Past Weather in Saint-Pierre, Saint Pierre and Miquelon — Yesterday and Last 2 Weeks

Now
33 °F

Chilly.


Feels Like: 26 °F
Forecast: 35 / 38 °F
Wind: 7 mph from Southwest

Location: Saint-Pierre

Current Time: Apr 24, 2017 at 1:37:40 am

Latest Report: Apr 24, 2017 at 1:00 am


Visibility: 22 mi

Pressure: 29.91 "Hg

Humidity: 92%

Dew Point: 31 °F

Location of Saint-PierreLocation

Past Weather in Saint-Pierre — Graph

°F

Saint-Pierre Temperature Yesterday

Maximum temperature yesterday: 37 °F (at 2:00 pm)
Minimum temperature yesterday: 32 °F (at 10:00 am)
Average temperature yesterday: 34 °F

High & Low Weather Summary for the Past Weeks

 TemperatureHumidityPressure
High46 °F (Apr 22, 5:00 pm)97% (Apr 9, 12:00 am)30.56 "Hg (Apr 9, 12:00 am)
Low24 °F (Apr 19, 5:00 am)49% (Apr 19, 5:00 pm)29.61 "Hg (Apr 17, 2:00 pm)
Average35 °F80%30.11 "Hg
* Reported Apr 9 12:00 am — Apr 24 12:00 am, Saint-Pierre, Weather by CustomWeather, © 2017

Note: Actual official high and low records may vary slightly from our data, if they occured in-between our weather recording intervals... More about our weather records

Advertising

Saint-Pierre Weather History for the Previous 24 Hours

Scroll right to see more
 ConditionsComfort  
Time TempWeatherWind HumidityBarometerVisibility
12:00 am
Mon, Apr 24
33 °FChilly.3 mph93%29.92 "Hg11 mi
11:00 pm
Sun, Apr 23
33 °FLow clouds.9 mph93%29.91 "Hg34 mi
10:00 pm32 °FLow clouds.7 mph92%29.89 "Hg37 mi
9:00 pm33 °FLow clouds.7 mph91%29.87 "Hg37 mi
8:00 pm33 °FLight snow. Low clouds.7 mph91%29.85 "Hg10 mi
7:00 pm33 °FLow clouds.7 mph91%29.83 "Hg22 mi
6:00 pm35 °FPartly sunny.8 mph90%29.83 "Hg6 mi
5:00 pm33 °FLight snow. Low clouds.7 mph90%29.82 "Hg1 mi
4:00 pm34 °FLight snow. Low clouds.2 mph86%29.83 "Hg1 mi
3:00 pm34 °FLight snow. Low clouds.6 mph88%29.83 "Hg1 mi
2:00 pm37 °FLight snow. Low clouds.No wind80%29.83 "Hg1 mi
1:00 pm34 °FLight snow. Low clouds.No wind89%29.85 "Hg1 mi
12:00 pm33 °FSnow. Low clouds.2 mph93%29.86 "Hg1 mi
11:00 am32 °FSnow. Low clouds.5 mph93%29.87 "Hg1 mi
10:00 am32 °FLight snow. Low clouds.6 mph93%29.89 "Hg1 mi
9:00 am33 °FLight snow. Overcast.10 mph91%29.88 "Hg2 mi
8:00 am33 °FOvercast.10 mph85%29.87 "Hg12 mi
7:00 am33 °FOvercast.9 mph86%29.88 "Hg12 mi
6:00 am34 °FOvercast.9 mph84%29.89 "Hg12 mi
5:00 am34 °FOvercast.8 mph83%29.90 "Hg34 mi
4:00 am33 °FOvercast.7 mph84%29.91 "Hg34 mi
3:00 am33 °FOvercast.6 mph87%29.93 "Hg34 mi
2:00 am34 °FOvercast.6 mph86%29.95 "Hg7 mi
1:00 am35 °FOvercast.9 mph83%29.98 "Hg34 mi
Weather by CustomWeather, © 2017

See weather overviewHow to use our weather pages